| time (UTC) | temp C | wind direction | speed KPH | gust KPH | rain 1hr cm | rain 24hr cm | rain mn cm | humidity % | barometer mb |
| 20260506062045 | 17 | 52 | 0.0 | 1.6 | 0.00 | 0.00 | 0.00 | 71 | 1010.1 |
| 20260506061541 | 17 | 80 | 3.2 | 3.2 | 0.00 | 0.00 | 0.00 | 71 | 1010.3 |
| 20260506061039 | 18 | 41 | 0.0 | 1.6 | 0.00 | 0.00 | 0.00 | 71 | 1010.5 |
| 20260506060537 | 18 | 57 | 1.6 | 4.8 | 0.00 | 0.00 | 0.00 | 71 | 1010.6 |
| 20260506051006 | 18 | 58 | 1.6 | 3.2 | 0.00 | 0.00 | 0.00 | 67 | 1010.7 |
| 20260506050503 | 18 | 45 | 1.6 | 3.2 | 0.00 | 0.00 | 0.00 | 67 | 1011.0 |
| 20260506044954 | 18 | 56 | 1.6 | 4.8 | 0.00 | 0.00 | 0.00 | 66 | 1010.9 |
| 20260506044452 | 19 | 64 | 1.6 | 3.2 | 0.00 | 0.00 | 0.00 | 65 | 1010.6 |
| 20260506043948 | 19 | 346 | 3.2 | 3.2 | 0.00 | 0.00 | 0.00 | 65 | 1010.6 |
| 20260506043445 | 19 | 72 | 3.2 | 3.2 | 0.00 | 0.00 | 0.00 | 65 | 1010.7 |
| 20260506042943 | 19 | 37 | 3.2 | 4.8 | 0.00 | 0.00 | 0.00 | 65 | 1010.9 |
| 20260506042443 | 19 | 52 | 1.6 | 4.8 | 0.00 | 0.00 | 0.00 | 64 | 1010.7 |
| 20260506041940 | 19 | 54 | 0.0 | 1.6 | 0.00 | 0.00 | 0.00 | 64 | 1010.8 |
| 20260506041438 | 19 | 65 | 3.2 | 3.2 | 0.00 | 0.00 | 0.00 | 64 | 1010.6 |
| 20260506040935 | 20 | 59 | 1.6 | 3.2 | 0.00 | 0.00 | 0.00 | 64 | 1010.6 |
| 20260506040432 | 20 | 59 | 0.0 | 3.2 | 0.00 | 0.00 | 0.00 | 64 | 1010.7 |
| 20260506035928 | 20 | 62 | 1.6 | 3.2 | 0.00 | 0.00 | 0.00 | 64 | 1010.9 |
| 20260506035426 | 20 | 61 | 1.6 | 3.2 | 0.00 | 0.00 | 0.00 | 64 | 1010.6 |
| 20260506034922 | 20 | 52 | 0.0 | 3.2 | 0.00 | 0.00 | 0.00 | 65 | 1010.6 |
| 20260506034420 | 20 | 59 | 0.0 | 3.2 | 0.00 | 0.00 | 0.00 | 64 | 1010.6 |
| 20260506033917 | 20 | 78 | 1.6 | 3.2 | 0.00 | 0.00 | 0.00 | 64 | 1010.5 |
| 20260506033414 | 20 | 47 | 0.0 | 3.2 | 0.00 | 0.00 | 0.00 | 64 | 1010.4 |
| 20260506032911 | 20 | 63 | 4.8 | 4.8 | 0.00 | 0.00 | 0.00 | 64 | 1010.5 |
| 20260506032408 | 20 | 63 | 1.6 | 4.8 | 0.00 | 0.00 | 0.00 | 64 | 1010.6 |
| 20260506031905 | 20 | 79 | 1.6 | 3.2 | 0.00 | 0.00 | 0.00 | 64 | 1010.5 |
| 20260506031402 | 20 | 48 | 0.0 | 4.8 | 0.00 | 0.00 | 0.00 | 63 | 1010.5 |
| 20260506030859 | 20 | 33 | 1.6 | 3.2 | 0.00 | 0.00 | 0.00 | 64 | 1010.3 |
| 20260506030357 | 20 | 91 | 4.8 | 4.8 | 0.00 | 0.00 | 0.00 | 63 | 1010.4 |
| 20260506025854 | 20 | 53 | 0.0 | 4.8 | 0.00 | 0.00 | 0.00 | 63 | 1010.4 |
| 20260506025350 | 21 | 62 | 1.6 | 3.2 | 0.00 | 0.00 | 0.00 | 63 | 1010.2 |
| 20260506024847 | 21 | 55 | 1.6 | 3.2 | 0.00 | 0.00 | 0.00 | 63 | 1010.2 |
| 20260506024344 | 21 | 50 | 1.6 | 1.6 | 0.00 | 0.00 | 0.00 | 62 | 1010.0 |
| 20260506023840 | 21 | 51 | 1.6 | 3.2 | 0.00 | 0.00 | 0.00 | 62 | 1010.0 |
| 20260506023337 | 21 | 56 | 0.0 | 1.6 | 0.00 | 0.00 | 0.00 | 61 | 1010.1 |
| 20260506022834 | 21 | 47 | 0.0 | 1.6 | 0.00 | 0.00 | 0.00 | 61 | 1010.0 |
| 20260506022332 | 21 | 55 | 0.0 | 3.2 | 0.00 | 0.00 | 0.00 | 60 | 1009.9 |
| 20260506021830 | 21 | 52 | 1.6 | 3.2 | 0.00 | 0.00 | 0.00 | 59 | 1009.9 |
| 20260506021326 | 21 | 80 | 3.2 | 4.8 | 0.00 | 0.00 | 0.00 | 58 | 1010.0 |
| 20260506020823 | 21 | 73 | 1.6 | 3.2 | 0.00 | 0.00 | 0.00 | 57 | 1010.2 |
| 20260506020321 | 21 | 59 | 0.0 | 3.2 | 0.00 | 0.00 | 0.00 | 55 | 1010.1 |
| 20260506015818 | 21 | 64 | 1.6 | 3.2 | 0.00 | 0.00 | 0.00 | 54 | 1009.9 |
| 20260506015316 | 21 | 48 | 1.6 | 3.2 | 0.00 | 0.00 | 0.00 | 54 | 1010.3 |
| 20260506014812 | 21 | 51 | 0.0 | 3.2 | 0.00 | 0.00 | 0.00 | 54 | 1010.1 |
| 20260506014309 | 21 | 52 | 0.0 | 0.0 | 0.00 | 0.00 | 0.00 | 57 | 1010.2 |
| 20260506013806 | 21 | 52 | 0.0 | 0.0 | 0.00 | 0.00 | 0.00 | 58 | 1009.8 |
| 20260506013303 | 21 | 52 | 0.0 | 0.0 | 0.00 | 0.00 | 0.00 | 52 | 1009.8 |
| 20260506012759 | 21 | 52 | 0.0 | 0.0 | 0.00 | 0.00 | 0.00 | 51 | 1009.7 |
| 20260506012256 | 21 | 52 | 0.0 | 0.0 | 0.00 | 0.00 | 0.00 | 50 | 1009.8 |
| 20260506011754 | 22 | 52 | 0.0 | 0.0 | 0.00 | 0.00 | 0.00 | 50 | 1009.4 |
| 20260506011250 | 22 | 52 | 0.0 | 0.0 | 0.00 | 0.00 | 0.00 | 49 | 1009.6 |
| 20260506010748 | 22 | 52 | 0.0 | 0.0 | 0.00 | 0.00 | 0.00 | 48 | 1009.5 |
| 20260506010245 | 22 | 52 | 0.0 | 0.0 | 0.00 | 0.00 | 0.00 | 48 | 1009.6 |
| 20260506005743 | 22 | 52 | 0.0 | 0.0 | 0.00 | 0.00 | 0.00 | 48 | 1009.3 |
| 20260506005239 | 22 | 52 | 0.0 | 0.0 | 0.00 | 0.00 | 0.00 | 48 | 1009.2 |
| 20260506004735 | 23 | 52 | 0.0 | 0.0 | 0.00 | 0.00 | 0.00 | 47 | 1009.4 |
| 20260506004233 | 23 | 52 | 0.0 | 0.0 | 0.00 | 0.00 | 0.00 | 46 | 1009.4 |
| 20260506003728 | 23 | 52 | 0.0 | 0.0 | 0.00 | 0.00 | 0.00 | 46 | 1009.3 |
| 20260506003225 | 23 | 52 | 0.0 | 0.0 | 0.00 | 0.00 | 0.00 | 45 | 1008.9 |
| 20260506002721 | 23 | 53 | 0.0 | 0.0 | 0.00 | 0.00 | 0.00 | 45 | 1009.2 |
| 20260506002218 | 23 | 52 | 0.0 | 0.0 | 0.00 | 0.00 | 0.00 | 44 | 1008.9 |
| 20260506001714 | 24 | 52 | 0.0 | 0.0 | 0.00 | 0.00 | 0.00 | 44 | 1009.0 |
| 20260506001211 | 24 | 52 | 0.0 | 0.0 | 0.00 | 0.00 | 0.00 | 43 | 1008.8 |
| 20260506000708 | 25 | 53 | 0.0 | 0.0 | 0.00 | 0.00 | 0.00 | 42 | 1008.8 |
| 20260506000206 | 25 | 53 | 0.0 | 0.0 | 0.00 | 0.00 | 0.00 | 41 | 1008.5 |
| 20260505235703 | 25 | 53 | 0.0 | 0.0 | 0.00 | 0.00 | 0.00 | 41 | 1008.7 |
| 20260505235201 | 25 | 51 | 0.0 | 1.6 | 0.00 | 0.00 | 0.00 | 40 | 1008.7 |
| 20260505234657 | 26 | 46 | 0.0 | 1.6 | 0.00 | 0.00 | 0.00 | 40 | 1008.8 |
| 20260505234154 | 26 | 21 | 1.6 | 3.2 | 0.00 | 0.00 | 0.00 | 40 | 1008.7 |
| 20260505233651 | 26 | 97 | 3.2 | 3.2 | 0.00 | 0.00 | 0.00 | 39 | 1008.8 |
| 20260505233149 | 26 | 335 | 4.8 | 8.0 | 0.00 | 0.00 | 0.00 | 38 | 1009.0 |
| 20260505232646 | 26 | 65 | 1.6 | 4.8 | 0.00 | 0.00 | 0.00 | 38 | 1008.8 |
| 20260505232144 | 26 | 72 | 1.6 | 4.8 | 0.00 | 0.00 | 0.00 | 38 | 1008.8 |
| 20260505231640 | 26 | 307 | 4.8 | 4.8 | 0.00 | 0.00 | 0.00 | 38 | 1008.7 |
| 20260505231139 | 26 | 287 | 4.8 | 4.8 | 0.00 | 0.00 | 0.00 | 38 | 1008.8 |
| 20260505230637 | 26 | 301 | 4.8 | 8.0 | 0.00 | 0.00 | 0.00 | 37 | 1009.1 |
| 20260505230132 | 26 | 25 | 3.2 | 8.0 | 0.00 | 0.00 | 0.00 | 38 | 1008.9 |
| 20260505225629 | 26 | 144 | 3.2 | 9.7 | 0.00 | 0.00 | 0.00 | 37 | 1008.8 |
| 20260505225125 | 26 | 345 | 4.8 | 4.8 | 0.00 | 0.00 | 0.00 | 38 | 1009.0 |
| 20260505224622 | 26 | 259 | 6.4 | 11.3 | 0.00 | 0.00 | 0.00 | 37 | 1009.1 |
| 20260505224120 | 26 | 251 | 6.4 | 9.7 | 0.00 | 0.00 | 0.00 | 37 | 1009.3 |
| 20260505223617 | 26 | 313 | 4.8 | 12.9 | 0.00 | 0.00 | 0.00 | 38 | 1008.9 |
| 20260505223113 | 27 | 296 | 9.7 | 11.3 | 0.00 | 0.00 | 0.00 | 37 | 1009.0 |
| 20260505222609 | 27 | 311 | 8.0 | 12.9 | 0.00 | 0.00 | 0.00 | 35 | 1009.3 |
| 20260505222106 | 27 | 184 | 4.8 | 9.7 | 0.00 | 0.00 | 0.00 | 36 | 1009.0 |
| 20260505221603 | 27 | 330 | 4.8 | 9.7 | 0.00 | 0.00 | 0.00 | 37 | 1009.1 |
| 20260505221059 | 27 | 121 | 4.8 | 8.0 | 0.00 | 0.00 | 0.00 | 36 | 1008.9 |
| 20260505220556 | 27 | 59 | 1.6 | 4.8 | 0.00 | 0.00 | 0.00 | 36 | 1009.0 |
| 20260505220054 | 26 | 76 | 1.6 | 4.8 | 0.00 | 0.00 | 0.00 | 37 | 1008.9 |
| 20260505215552 | 26 | 187 | 4.8 | 4.8 | 0.00 | 0.00 | 0.00 | 36 | 1008.9 |
| 20260505215049 | 26 | 288 | 6.4 | 9.7 | 0.00 | 0.00 | 0.00 | 37 | 1009.1 |
| 20260505214548 | 27 | 277 | 11.3 | 12.9 | 0.00 | 0.00 | 0.00 | 36 | 1009.0 |
| 20260505214044 | 26 | 104 | 3.2 | 4.8 | 0.00 | 0.00 | 0.00 | 37 | 1008.9 |
| 20260505213542 | 26 | 343 | 3.2 | 9.7 | 0.00 | 0.00 | 0.00 | 38 | 1009.1 |
| 20260505213038 | 26 | 307 | 8.0 | 12.9 | 0.00 | 0.00 | 0.00 | 37 | 1009.1 |
| 20260505212534 | 27 | 97 | 3.2 | 4.8 | 0.00 | 0.00 | 0.00 | 36 | 1009.3 |
| 20260505212032 | 26 | 331 | 4.8 | 9.7 | 0.00 | 0.00 | 0.00 | 38 | 1009.0 |
| 20260505211529 | 26 | 219 | 3.2 | 9.7 | 0.00 | 0.00 | 0.00 | 38 | 1009.4 |
| 20260505211025 | 26 | 298 | 8.0 | 11.3 | 0.00 | 0.00 | 0.00 | 40 | 1009.2 |
| 20260505210522 | 26 | 301 | 8.0 | 11.3 | 0.00 | 0.00 | 0.00 | 38 | 1009.4 |
| 20260505210020 | 26 | 321 | 4.8 | 8.0 | 0.00 | 0.00 | 0.00 | 39 | 1009.5 |
| 20260505205518 | 26 | 357 | 3.2 | 8.0 | 0.00 | 0.00 | 0.00 | 40 | 1009.3 |
| 20260505205014 | 26 | 327 | 4.8 | 8.0 | 0.00 | 0.00 | 0.00 | 41 | 1009.4 |
| 20260505204512 | 26 | 59 | 1.6 | 3.2 | 0.00 | 0.00 | 0.00 | 39 | 1009.4 |
| 20260505204009 | 26 | 271 | 4.8 | 12.9 | 0.00 | 0.00 | 0.00 | 41 | 1009.6 |
| 20260505203506 | 26 | 319 | 4.8 | 8.0 | 0.00 | 0.00 | 0.00 | 39 | 1009.7 |
| 20260505203002 | 26 | 274 | 9.7 | 11.3 | 0.00 | 0.00 | 0.00 | 40 | 1009.8 |
| 20260505202459 | 26 | 289 | 6.4 | 8.0 | 0.00 | 0.00 | 0.00 | 39 | 1009.5 |
| 20260505201954 | 26 | 330 | 6.4 | 11.3 | 0.00 | 0.00 | 0.00 | 43 | 1009.6 |
| 20260505201452 | 26 | 289 | 4.8 | 11.3 | 0.00 | 0.00 | 0.00 | 39 | 1009.7 |
| 20260505200949 | 27 | 296 | 11.3 | 16.1 | 0.00 | 0.00 | 0.00 | 39 | 1009.8 |
| 20260505200447 | 26 | 46 | 0.0 | 4.8 | 0.00 | 0.00 | 0.00 | 36 | 1009.8 |
| 20260505195942 | 26 | 358 | 3.2 | 8.0 | 0.00 | 0.00 | 0.00 | 37 | 1009.9 |
| 20260505195440 | 27 | 17 | 4.8 | 9.7 | 0.00 | 0.00 | 0.00 | 36 | 1010.2 |
| 20260505194937 | 27 | 309 | 8.0 | 9.7 | 0.00 | 0.00 | 0.00 | 36 | 1010.0 |
| 20260505194434 | 27 | 6 | 1.6 | 4.8 | 0.00 | 0.00 | 0.00 | 36 | 1010.1 |
| 20260505193934 | 26 | 356 | 4.8 | 9.7 | 0.00 | 0.00 | 0.00 | 38 | 1010.3 |
| 20260505193432 | 26 | 331 | 4.8 | 9.7 | 0.00 | 0.00 | 0.00 | 38 | 1010.3 |
| 20260505192930 | 26 | 330 | 3.2 | 4.8 | 0.00 | 0.00 | 0.00 | 39 | 1010.5 |
| 20260505192428 | 26 | 195 | 3.2 | 9.7 | 0.00 | 0.00 | 0.00 | 38 | 1010.6 |
| 20260505191925 | 26 | 272 | 6.4 | 8.0 | 0.00 | 0.00 | 0.00 | 38 | 1010.5 |
| 20260505191424 | 26 | 62 | 3.2 | 8.0 | 0.00 | 0.00 | 0.00 | 39 | 1010.6 |
| 20260505190920 | 26 | 272 | 6.4 | 11.3 | 0.00 | 0.00 | 0.00 | 39 | 1010.7 |
| 20260505190415 | 26 | 274 | 9.7 | 11.3 | 0.00 | 0.00 | 0.00 | 39 | 1010.5 |
| 20260505185911 | 25 | 250 | 11.3 | 12.9 | 0.00 | 0.00 | 0.00 | 39 | 1010.8 |
| 20260505185409 | 26 | 291 | 11.3 | 12.9 | 0.00 | 0.00 | 0.00 | 39 | 1010.8 |
| 20260505184904 | 26 | 243 | 9.7 | 11.3 | 0.00 | 0.00 | 0.00 | 38 | 1010.7 |
| 20260505184401 | 25 | 337 | 4.8 | 8.0 | 0.00 | 0.00 | 0.00 | 38 | 1011.2 |
| 20260505183858 | 26 | 286 | 6.4 | 9.7 | 0.00 | 0.00 | 0.00 | 38 | 1011.3 |
| 20260505183355 | 25 | 292 | 9.7 | 11.3 | 0.00 | 0.00 | 0.00 | 40 | 1011.5 |
| 20260505182852 | 26 | 279 | 19.3 | 24.1 | 0.00 | 0.00 | 0.00 | 39 | 1011.5 |
| 20260505182349 | 25 | 90 | 4.8 | 8.0 | 0.00 | 0.00 | 0.00 | 39 | 1011.6 |
| 20260505181845 | 26 | 48 | 4.8 | 9.7 | 0.00 | 0.00 | 0.00 | 38 | 1011.9 |
| 20260505181343 | 26 | 288 | 6.4 | 9.7 | 0.00 | 0.00 | 0.00 | 37 | 1011.9 |
| 20260505180839 | 25 | 117 | 3.2 | 11.3 | 0.00 | 0.00 | 0.00 | 37 | 1011.9 |
| 20260505180336 | 25 | 296 | 8.0 | 9.7 | 0.00 | 0.00 | 0.00 | 38 | 1012.0 |
| 20260505175832 | 25 | 289 | 6.4 | 16.1 | 0.00 | 0.00 | 0.00 | 38 | 1011.9 |
| 20260505175329 | 26 | 315 | 4.8 | 4.8 | 0.00 | 0.00 | 0.00 | 40 | 1011.5 |
| 20260505174825 | 25 | 209 | 6.4 | 16.1 | 0.00 | 0.00 | 0.00 | 42 | 1011.9 |
| 20260505174323 | 25 | 306 | 8.0 | 12.9 | 0.00 | 0.00 | 0.00 | 40 | 1011.6 |
| 20260505173819 | 25 | 283 | 9.7 | 12.9 | 0.00 | 0.00 | 0.00 | 41 | 1011.6 |
| 20260505173315 | 25 | 231 | 8.0 | 9.7 | 0.00 | 0.00 | 0.00 | 38 | 1011.7 |
| 20260505172813 | 25 | 299 | 4.8 | 12.9 | 0.00 | 0.00 | 0.00 | 40 | 1011.9 |
| 20260505172310 | 25 | 295 | 8.0 | 12.9 | 0.00 | 0.00 | 0.00 | 42 | 1011.7 |
| 20260505171804 | 25 | 61 | 3.2 | 8.0 | 0.00 | 0.00 | 0.00 | 38 | 1011.8 |
| 20260505171301 | 25 | 290 | 6.4 | 8.0 | 0.00 | 0.00 | 0.00 | 41 | 1011.8 |
| 20260505170758 | 24 | 343 | 4.8 | 4.8 | 0.00 | 0.00 | 0.00 | 42 | 1011.7 |
| 20260505170255 | 25 | 282 | 4.8 | 11.3 | 0.00 | 0.00 | 0.00 | 41 | 1012.1 |
| 20260505165755 | 25 | 68 | 1.6 | 4.8 | 0.00 | 0.00 | 0.00 | 39 | 1012.1 |
| 20260505165251 | 25 | 51 | 0.0 | 4.8 | 0.00 | 0.00 | 0.00 | 41 | 1011.9 |
| 20260505164747 | 24 | 91 | 4.8 | 8.0 | 0.00 | 0.00 | 0.00 | 42 | 1012.2 |
| 20260505164245 | 25 | 296 | 9.7 | 11.3 | 0.00 | 0.00 | 0.00 | 42 | 1012.1 |
| 20260505163743 | 24 | 35 | 1.6 | 4.8 | 0.00 | 0.00 | 0.00 | 43 | 1012.3 |
| 20260505163241 | 23 | 30 | 0.0 | 4.8 | 0.00 | 0.00 | 0.00 | 45 | 1012.3 |
| 20260505162738 | 24 | 294 | 9.7 | 11.3 | 0.00 | 0.00 | 0.00 | 46 | 1012.4 |
| 20260505162235 | 24 | 57 | 1.6 | 4.8 | 0.00 | 0.00 | 0.00 | 45 | 1012.6 |
| 20260505161732 | 23 | 343 | 8.0 | 8.0 | 0.00 | 0.00 | 0.00 | 44 | 1012.5 |
| 20260505161230 | 24 | 229 | 8.0 | 12.9 | 0.00 | 0.00 | 0.00 | 46 | 1012.6 |
| 20260505160727 | 23 | 41 | 1.6 | 9.7 | 0.00 | 0.00 | 0.00 | 48 | 1012.6 |
| 20260505160225 | 23 | 306 | 6.4 | 8.0 | 0.00 | 0.00 | 0.00 | 51 | 1012.5 |
| 20260505153203 | 22 | 2 | 1.6 | 3.2 | 0.00 | 0.00 | 0.00 | 55 | 1012.9 |
| 20260505152700 | 22 | 288 | 6.4 | 9.7 | 0.00 | 0.00 | 0.00 | 55 | 1013.1 |
| 20260505152156 | 22 | 17 | 1.6 | 4.8 | 0.00 | 0.00 | 0.00 | 57 | 1013.1 |
| 20260505151651 | 22 | 8 | 1.6 | 8.0 | 0.00 | 0.00 | 0.00 | 56 | 1013.0 |
| 20260505151149 | 22 | 321 | 4.8 | 8.0 | 0.00 | 0.00 | 0.00 | 58 | 1012.9 |
| 20260505150645 | 22 | 289 | 4.8 | 9.7 | 0.00 | 0.00 | 0.00 | 58 | 1012.9 |
| 20260505150142 | 22 | 283 | 6.4 | 9.7 | 0.00 | 0.00 | 0.00 | 59 | 1013.2 |
| 20260505140611 | 20 | 54 | 1.6 | 4.8 | 0.00 | 0.00 | 0.00 | 66 | 1012.9 |
| 20260505140108 | 20 | 298 | 11.3 | 12.9 | 0.00 | 0.00 | 0.00 | 67 | 1012.6 |
| 20260505125024 | 17 | 261 | 4.8 | 8.0 | 0.00 | 0.00 | 0.00 | 74 | 1013.3 |
| 20260505124521 | 16 | 262 | 6.4 | 9.7 | 0.00 | 0.00 | 0.00 | 76 | 1013.1 |
| 20260505124017 | 16 | 302 | 6.4 | 8.0 | 0.00 | 0.00 | 0.00 | 76 | 1013.1 |
| 20260505123514 | 16 | 343 | 4.8 | 8.0 | 0.00 | 0.00 | 0.00 | 77 | 1012.9 |
| 20260505123010 | 15 | 6 | 1.6 | 3.2 | 0.00 | 0.00 | 0.00 | 78 | 1012.8 |
| 20260505122507 | 15 | 31 | 0.0 | 1.6 | 0.00 | 0.00 | 0.00 | 79 | 1013.0 |
| 20260505122004 | 15 | 23 | 0.0 | 1.6 | 0.00 | 0.00 | 0.00 | 79 | 1012.9 |
| 20260505121501 | 15 | 34 | 0.0 | 0.0 | 0.00 | 0.00 | 0.00 | 80 | 1012.5 |
| 20260505120957 | 14 | 25 | 1.6 | 1.6 | 0.00 | 0.00 | 0.00 | 80 | 1012.7 |
| 20260505120453 | 14 | 5 | 3.2 | 3.2 | 0.00 | 0.00 | 0.00 | 81 | 1012.4 |
| 20260505115952 | 13 | 49 | 0.0 | 1.6 | 0.00 | 0.00 | 0.00 | 82 | 1012.8 |
| 20260505115449 | 13 | 49 | 0.0 | 0.0 | 0.00 | 0.00 | 0.00 | 83 | 1012.6 |
| 20260505114947 | 13 | 49 | 0.0 | 0.0 | 0.00 | 0.00 | 0.00 | 83 | 1012.7 |
| 20260505114443 | 13 | 48 | 0.0 | 0.0 | 0.00 | 0.00 | 0.00 | 84 | 1012.6 |
| 20260505113940 | 13 | 49 | 0.0 | 0.0 | 0.00 | 0.00 | 0.00 | 84 | 1012.6 |
| 20260505113436 | 13 | 49 | 0.0 | 0.0 | 0.00 | 0.00 | 0.00 | 85 | 1012.5 |
| 20260505112932 | 13 | 49 | 0.0 | 0.0 | 0.00 | 0.00 | 0.00 | 85 | 1012.6 |
| 20260505112430 | 13 | 49 | 0.0 | 0.0 | 0.00 | 0.00 | 0.00 | 85 | 1012.8 |
| 20260505111926 | 13 | 49 | 0.0 | 0.0 | 0.00 | 0.00 | 0.00 | 85 | 1012.6 |
| 20260505111420 | 13 | 49 | 0.0 | 0.0 | 0.00 | 0.00 | 0.00 | 85 | 1012.4 |
| 20260505110917 | 13 | 49 | 0.0 | 0.0 | 0.00 | 0.00 | 0.00 | 85 | 1012.5 |
| 20260505110414 | 13 | 49 | 0.0 | 0.0 | 0.00 | 0.00 | 0.00 | 85 | 1012.4 |
| 20260505101845 | 13 | 39 | 0.0 | 0.0 | 0.00 | 0.00 | 0.00 | 81 | 1011.7 |
| 20260505101339 | 13 | 39 | 0.0 | 0.0 | 0.00 | 0.00 | 0.00 | 81 | 1012.0 |
| 20260505100836 | 13 | 39 | 0.0 | 1.6 | 0.00 | 0.00 | 0.00 | 81 | 1011.8 |
| 20260505100333 | 13 | 38 | 1.6 | 1.6 | 0.00 | 0.00 | 0.00 | 81 | 1011.7 |
| 20260505095828 | 13 | 35 | 1.6 | 1.6 | 0.00 | 0.00 | 0.00 | 81 | 1011.7 |
| 20260505095326 | 13 | 34 | 0.0 | 1.6 | 0.00 | 0.00 | 0.00 | 81 | 1011.7 |
| 20260505094821 | 13 | 34 | 1.6 | 1.6 | 0.00 | 0.00 | 0.00 | 81 | 1011.7 |
| 20260505094319 | 13 | 33 | 0.0 | 1.6 | 0.00 | 0.00 | 0.00 | 81 | 1011.8 |
| 20260505093814 | 13 | 29 | 0.0 | 0.0 | 0.00 | 0.00 | 0.00 | 80 | 1011.7 |
| 20260505093312 | 13 | 29 | 0.0 | 0.0 | 0.00 | 0.00 | 0.00 | 80 | 1011.4 |
| 20260505092808 | 13 | 29 | 0.0 | 0.0 | 0.00 | 0.00 | 0.00 | 79 | 1011.7 |
| 20260505092307 | 13 | 29 | 0.0 | 0.0 | 0.00 | 0.00 | 0.00 | 79 | 1011.4 |
| 20260505091804 | 13 | 29 | 0.0 | 0.0 | 0.00 | 0.00 | 0.00 | 78 | 1011.5 |
| 20260505091302 | 13 | 29 | 0.0 | 0.0 | 0.00 | 0.00 | 0.00 | 78 | 1011.6 |
| 20260505090800 | 13 | 29 | 0.0 | 0.0 | 0.00 | 0.00 | 0.00 | 77 | 1011.5 |
| 20260505090258 | 13 | 29 | 0.0 | 0.0 | 0.00 | 0.00 | 0.00 | 77 | 1011.2 |
| 20260505085755 | 13 | 29 | 0.0 | 0.0 | 0.00 | 0.00 | 0.00 | 77 | 1011.4 |
| 20260505085253 | 13 | 29 | 0.0 | 0.0 | 0.00 | 0.00 | 0.00 | 77 | 1011.4 |
| 20260505084750 | 13 | 29 | 0.0 | 0.0 | 0.00 | 0.00 | 0.00 | 76 | 1011.4 |
| 20260505084249 | 13 | 29 | 0.0 | 0.0 | 0.00 | 0.00 | 0.00 | 76 | 1011.6 |
| 20260505083745 | 13 | 29 | 0.0 | 0.0 | 0.00 | 0.00 | 0.00 | 75 | 1011.4 |
| 20260505083242 | 14 | 29 | 0.0 | 0.0 | 0.00 | 0.00 | 0.00 | 75 | 1011.5 |
| 20260505082739 | 14 | 29 | 0.0 | 0.0 | 0.00 | 0.00 | 0.00 | 74 | 1011.6 |
| 20260505082236 | 14 | 29 | 0.0 | 0.0 | 0.00 | 0.00 | 0.00 | 74 | 1011.5 |
| 20260505081732 | 14 | 29 | 0.0 | 0.0 | 0.00 | 0.00 | 0.00 | 74 | 1011.5 |
| 20260505081229 | 15 | 23 | 0.0 | 0.0 | 0.00 | 0.00 | 0.00 | 74 | 1011.7 |
| 20260505080726 | 15 | 23 | 0.0 | 0.0 | 0.00 | 0.00 | 0.00 | 73 | 1011.7 |
| 20260505080221 | 15 | 23 | 0.0 | 0.0 | 0.00 | 0.00 | 0.00 | 73 | 1011.4 |
| 20260505075717 | 15 | 23 | 0.0 | 0.0 | 0.00 | 0.00 | 0.00 | 73 | 1011.4 |
| 20260505075215 | 15 | 23 | 0.0 | 0.0 | 0.00 | 0.00 | 0.00 | 72 | 1011.4 |
| 20260505074712 | 15 | 23 | 0.0 | 0.0 | 0.00 | 0.00 | 0.00 | 72 | 1011.4 |
| 20260505074209 | 15 | 23 | 0.0 | 1.6 | 0.00 | 0.00 | 0.00 | 72 | 1011.5 |
| 20260505073707 | 15 | 21 | 1.6 | 1.6 | 0.00 | 0.00 | 0.00 | 72 | 1011.3 |
| 20260505073204 | 15 | 12 | 1.6 | 3.2 | 0.00 | 0.00 | 0.00 | 72 | 1011.4 |
| 20260505072700 | 15 | 16 | 1.6 | 3.2 | 0.00 | 0.00 | 0.00 | 71 | 1011.1 |
| 20260505072156 | 15 | 20 | 1.6 | 3.2 | 0.00 | 0.00 | 0.00 | 71 | 1011.3 |
| 20260505071652 | 15 | 9 | 1.6 | 1.6 | 0.00 | 0.00 | 0.00 | 71 | 1010.9 |
| 20260505071150 | 15 | 12 | 1.6 | 3.2 | 0.00 | 0.00 | 0.00 | 71 | 1011.0 |
| 20260505070647 | 15 | 29 | 0.0 | 1.6 | 0.00 | 0.00 | 0.00 | 70 | 1011.1 |
| 20260505070143 | 15 | 30 | 0.0 | 1.6 | 0.00 | 0.00 | 0.00 | 70 | 1011.2 |
| 20260505065639 | 15 | 30 | 0.0 | 0.0 | 0.00 | 0.00 | 0.00 | 70 | 1011.1 |
| 20260505065136 | 15 | 30 | 0.0 | 0.0 | 0.00 | 0.00 | 0.00 | 69 | 1011.1 |
| 20260505064633 | 15 | 30 | 0.0 | 1.6 | 0.00 | 0.00 | 0.00 | 69 | 1011.1 |
| 20260505064131 | 15 | 30 | 1.6 | 1.6 | 0.00 | 0.00 | 0.00 | 69 | 1011.2 |
| 20260505063628 | 15 | 30 | 0.0 | 0.0 | 0.00 | 0.00 | 0.00 | 68 | 1011.4 |
| 20260505063124 | 15 | 30 | 0.0 | 1.6 | 0.00 | 0.00 | 0.00 | 68 | 1011.4 |
| 20260505062621 | 15 | 34 | 0.0 | 0.0 | 0.00 | 0.00 | 0.00 | 68 | 1011.3 |